{"data":{"norad_id":62808,"epoch":"2026-05-24T20:26:02.171328Z","epoch_age_seconds":87799,"freshness":"FRESH","line1":"1 62808U 25018C   26144.85141402  .00022142  00000+0  72285-3 0  9999","line2":"2 62808  53.1601 315.5128 0000660 105.4138 254.6937 15.31713687 74831","mean_motion":15.31713687,"eccentricity":6.6e-5,"inclination_deg":53.1601,"raan_deg":315.5128,"arg_perigee_deg":105.4138,"mean_anomaly_deg":254.6937,"bstar":0.00072285,"rev_number":7483,"period_min":94.012347883394,"perigee_km":470.24717210579,"apogee_km":471.15121848357,"semimajor_km":6848.8361952947,"source":"CELESTRAK","updated_at":"2026-05-25T13:38:19.770865Z"}}